Regional Weather Roundup
Issued by NWS Cleveland, OH

Home | Current Version | Previous Version | Graphics & Text | Print | Product List | Glossary On
Versions: 1 2 3 4 5 6 7 8 9 10 11 12 13 14 15 16 17 18 19 20 21 22 23 24 25 26 27 28 29 30 31 32 33 34 35 36 37 38 39 40 41 42 43 44 45 46 47 48 49 50
000
ASUS41 KCLE 011102
RWRCLE
OHIO REGIONAL WEATHER ROUNDUP
NATIONAL WEATHER SERVICE CLEVELAND, OH
600 AM EST SUN FEB 01 2015

NOTE: "FAIR" INDICATES FEW OR NO CLOUDS BELOW 12,000 FEET WITH NO
SIGNIFICANT WEATHER AND/OR OBSTRUCTIONS TO VISIBILITY.

OHZ001>008-015>018-024>027-034-035-043-044-011200-
   NORTHWEST OHIO

CITY           SKY/WX    TMP DP  RH WIND       PRES   REMARKS
DEFIANCE       LGT SNOW  33  31  92 SE3       30.12S VSB 3/4
FINDLAY        LGT SNOW  32  30  92 SE6       30.11F VSB 1   WCI  26
TOLEDO EXPRESS LGT SNOW  29  28  96 E8        30.13S FOG     WCI  21
TOLEDO EXEC    LGT SNOW  30  27  88 NE7       30.15S FOG     WCI  23
LIMA           CLOUDY    34  32  92 SE5       30.10S FOG     WCI  30
$$

OHZ009>014-019>023-028>033-038-089-011200-
   NORTHEAST OHIO

CITY           SKY/WX    TMP DP  RH WIND       PRES   REMARKS
CLE-HOPKINS    LGT SNOW  29  28  96 S3        30.18S FOG
CLE-LAKEFRONT  LGT SNOW  31  30  96 CALM      30.15F FOG
CUY CO. ARPT   NOT AVBL
LORAIN-ELYRIA  LGT SNOW  29  28  96 SE3       30.15S FOG
ASHTABULA      LGT SNOW  26  22  84 CALM      30.16S FOG
AKRON-CANTON   LGT SNOW  28  25  88 S6        30.14S VSB 1   WCI  22
WOOSTER        LGT SNOW  27  26  96 CALM      30.14F FOG
MANSFIELD      LGT SNOW  30  30 100 S3        30.12S FOG
YOUNGSTOWN     LGT SNOW  26  24  92 S3        30.14S FOG
$$

OHZ042-051>053-060>062-070>072-077>081-011200-
  SOUTHWEST OHIO

CITY           SKY/WX    TMP DP  RH WIND       PRES   REMARKS
CINC-COVINGTON CLOUDY    35  25  66 E9        30.07F WCI  28
CINC-LUNKEN    MIX PCPN  33  29  85 N6        30.13F WCI  28
HAMILTON       CLOUDY    34  30  85 CALM      30.12F
DAYTON         LGT RAIN  33  31  92 SE7       30.12F FOG     WCI  27
WRIGHT-PAT AFB NOT AVBL
DAYTON GENERAL CLOUDY    33  29  85 SE7       30.12R WCI  27
WILMINGTON     CLOUDY    32  27  81 SE7       30.13S WCI  26
$$

OHZ036-037-039>041-045>050-054>059-063>069-073>076-082>088-011200-
  CENTRAL AND SOUTHEAST OHIO

CITY           SKY/WX    TMP DP  RH WIND       PRES   REMARKS
COLUMBUS       CLOUDY    32  30  92 SE3       30.14F FOG
OSU AIRPORT    CLOUDY    32  31  96 SE5       30.14S FOG     WCI  27
BOLTON FIELD   NOT AVBL
RICKENBACK AFB NOT AVBL
NEWARK         LGT SNOW  32  30  92 CALM      30.14F FOG
MARION         LGT SNOW  31  29  92 S7        30.13S VSB 1   WCI  24
LANCASTER      CLOUDY    33  30  88 SE6       30.15F FOG     WCI  28
ZANESVILLE     LGT SNOW  29  26  89 SE5       30.17S FOG     WCI  24
NEW PHILLY     LGT SNOW  29  26  89 SE5       30.18S VSB 1   WCI  24
$$



USA.gov is the U.S. government's official web portal to all federal, state and local government web resources and services.